Location: Newark
(36.0797°N, 3.9744°E)
Time: 23:00:32
(UTC+00:00)

Vanguard 2 Rocket - Pass Details

Date: 15 December 2019
Orbit: 554 x 3326 km, 32.9° (Epoch: 18 January)

Event Time Altitude Azimuth Distance (km) Brightness Sun altitude
Rises 19:41:27 0° 275° (W) 6,314 12.1 -37.6°
Reaches altitude 10° 19:46:18 10° 273° (W) 4,880 11.3 -38.6°
Enters shadow 19:57:33 61° 229° (SW) 1,697 8.2 -40.8°
Maximum altitude 19:58:41 66° 195° (SSW) 1,566 - -41.1°
Drops below altitude 10° 20:05:28 10° 115° (ESE) 2,787 - -42.4°
Sets 20:07:33 0° 112° (ESE) 3,505 - -42.9°
